TJS-13 (62188 NORAD) Tracking and Keplerian Element Data

This shows tracking and keplerian element data for the satellite.

Feedback or suggestion? Click here.




ElementValue
Catalog62188
NameTJS-13
Epoch Orbit116
Epoch Day30.44961631
Epoch Year2025
RAAN99.9139
Inclination63.43
Eccentricity0.6984929
Argument of Perigee269.5819
Mean Anonmoly17.2332
Mean Motion2.00604144
Decay Rate5.46E-06
L11 62188U 24227A 25030.44961631 .00000546 00000+0 00000+0 0 9999
L22 62188 63.4300 99.9139 6984929 269.5819 17.2332 2.00604144 1167



Live tracking and technical data element details for TJS-13 (NORAD 62188). TJS-13 can be tracked NOW for your location showing map with azimuth and elevation plus other details from your city location.







IsCatalogInMostPopularTable: catalog: 62188, numindb: 8
Update: records affected: 1



GetName: 62188 TJS-13

Hit Count: updated at: Sun, 18 May 2025 23:11:43 GMT